Regional Weather Roundup
Issued by NWS

Home | Current Version | Previous Version | Text Only | Print | Product List | Glossary On
Versions: 1 2 3 4 5 6 7 8 9 10 11 12 13 14 15 16 17 18 19 20 21 22 23 24 25 26 27
000
ASUS46 KPQR 261810
RWROR

OREGON REGIONAL WEATHER ROUNDUP
NATIONAL WEATHER SERVICE PORTLAND OR
1100 AM PDT THU MAY 26 2016

NOTE: "FAIR" INDICATES FEW OR NO CLOUDS BELOW 12,000 FEET WITH
NO SIGNIFICANT WEATHER AND/OR OBSTRUCTIONS TO VISIBILITY.

ORZ001>013-261900-
NORTHWEST OREGON


CITY           SKY/WX    TMP DP  RH WIND       PRES   REMARKS
ASTORIA        CLOUDY    57  46  66 W10       30.24S
6HR MIN TEMP:  53; 6HR MAX TEMP:  57; 6HR PCP: TRACE;

NEWPORT        PTSUNNY   54  46  76 W7        30.30S
PORTLAND       CLOUDY    58  41  53 NW6       30.24S
6HR MIN TEMP:  54; 6HR MAX TEMP:  59;

VANCOUVER WA   CLOUDY    57  42  57 W7        30.24S
6HR MIN TEMP:  53; 6HR MAX TEMP:  57;

SCAPPOOSE      CLOUDY    57  44  62 S5        30.23S
6HR MIN TEMP:  52; 6HR MAX TEMP:  59;

HILLSBORO      CLOUDY    56  45  66 NW12      30.24S
6HR MIN TEMP:  53; 6HR MAX TEMP:  58;

AURORA         CLOUDY    55  45  68 VRB6      30.26S
6HR MIN TEMP:  51; 6HR MAX TEMP:  55;

MCMINNVILLE    CLOUDY    56  44  64 W6        30.25F
6HR MIN TEMP:  50; 6HR MAX TEMP:  57;

SALEM          CLOUDY    57  43  59 CALM      30.24F
6HR MIN TEMP:  51; 6HR MAX TEMP:  58;

CORVALLIS        N/A     57  45  62 W3        30.27R
EUGENE         CLOUDY    58  46  64 NE5       30.26S
6HR MIN TEMP:  52; 6HR MAX TEMP:  58;

$$

ORZ021-028-261900-
SOUTHWEST OREGON


CITY           SKY/WX    TMP DP  RH WIND       PRES   REMARKS
NORTH BEND     CLOUDY    59  46  63 N9        30.28S
6HR MIN TEMP:  55; 6HR MAX TEMP:  59;

BROOKINGS      SUNNY     61  47  59 NW10      30.18F
ROSEBURG       CLOUDY    58  45  62 NW6       30.24F
6HR MIN TEMP:  54; 6HR MAX TEMP:  58;

SEXTON SUMMIT  CLOUDY    50  41  71 VRB5      30.19F
6HR MIN TEMP:  40; 6HR MAX TEMP:  51;

MEDFORD        MOSUNNY   63  42  46 VRB5      30.18F
6HR MIN TEMP:  46; 6HR MAX TEMP:  63;

$$

ORZ014>016-041-261900-
COLUMBIA GORGE


CITY           SKY/WX    TMP DP  RH WIND       PRES   REMARKS
TROUTDALE      CLOUDY    59  41  51 VRB3      30.24S
6HR MIN TEMP:  54; 6HR MAX TEMP:  59;

THE DALLES     MOSUNNY   60  39  45 NW21G31   30.14S
6HR MIN TEMP:  54; 6HR MAX TEMP:  62;

$$

ORZ029>031-041-044-049-050-061>064-502-503-505>511-261900-
EASTERN OREGON


CITY           SKY/WX    TMP DP  RH WIND       PRES   REMARKS
REDMOND        SUNNY     59  33  37 NW6       30.12F
6HR MIN TEMP:  38; 6HR MAX TEMP:  59;

BEND           SUNNY     57  32  38 NW5       30.11F
PRINEVILLE     SUNNY     55  37  50 CALM      30.12F
KLAMATH FALLS  SUNNY     57  35  43 NW3       30.13F
6HR MIN TEMP:  32; 6HR MAX TEMP:  58;

LAKEVIEW       SUNNY     57  43  58 SE9       30.15S
HERMISTON        N/A     67  40  37 W22G30    30.07S
PENDLETON      MOSUNNY   63  37  38 W18G26    30.08F
6HR MIN TEMP:  48; 6HR MAX TEMP:  63; 6HR PCP: TRACE;

JOHN DAY         N/A    N/A N/A N/A MISG        N/A
MEACHAM        PTSUNNY   52  34  50 VRB5      30.10F
6HR MIN TEMP:  35; 6HR MAX TEMP:  54;

LA GRANDE      MOSUNNY   63  37  39 NW14      30.06F
6HR MIN TEMP:  48; 6HR MAX TEMP:  63;

BAKER CITY     SUNNY     59  43  55 NW9       30.06F
6HR MIN TEMP:  41; 6HR MAX TEMP:  60;

BURNS          MOSUNNY   62  40  44 MISG      30.09F
6HR MIN TEMP:  39; 6HR MAX TEMP:  62;

ROME             N/A     67  35  30 MISG      30.06F
6HR MIN TEMP:  44; 6HR MAX TEMP:  67;

ONTARIO        SUNNY     72  40  31 VRB7      30.02S
6HR MIN TEMP:  56; 6HR MAX TEMP:  73;

$$




USA.gov is the U.S. government's official web portal to all federal, state and local government web resources and services.